Home > Weather > Gütersloh > Past weeks

Flag for Germany Past Weather in Gütersloh, North Rhine-Westphalia, Germany — Yesterday and Last 2 Weeks

Now
54 °F

Clear.


Feels Like: 53 °F
Forecast: 51 / 72 °F
Wind: 3 mph from South

Location: Paderborn / Lippstadt

Current Time: May 26, 2016 at 2:45:47 AM

Latest Report: May 26, 2016 at 1:50 AM


Visibility: 10 mi

Pressure: 30.01 "Hg

Humidity: 100%

Dew Point: 54 °F

Location of GüterslohLocation

Past Weather in Gütersloh — Graph

°F

Gütersloh Temperature Yesterday

Maximum temperature yesterday: 59 °F (at 3:20 PM)
Minimum temperature yesterday: 48 °F (at 12:20 AM)
Average temperature yesterday: 53 °F

High & Low Weather Summary for the Past Weeks

 TemperatureHumidityPressure
High79 °F (May 22, 1:50 PM)100% (May 13, 3:20 AM)30.09 "Hg (May 13, 3:20 AM)
Low37 °F (May 16, 4:20 AM)27% (May 13, 3:50 PM)29.50 "Hg (May 12, 5:50 PM)
Average56 °F73%29.87 "Hg
* Reported May 11 1:20 AM — May 26 1:20 AM, Gütersloh, Weather by CustomWeather, © 2016

Note: Actual official high and low records may vary slightly from our data, if they occured in-between our weather recording intervals... More about our weather records

Advertising

Gütersloh Weather History for the Previous 24 Hours

Scroll right to see more
 ConditionsComfort  
Time TempWeatherWind HumidityBarometerVisibility
1:20 AM
Thu, May 26
54 °FClear.5 mph100%30.01 "Hg10 mi
12:50 AM54 °FClear.3 mph100%30.01 "Hg10 mi
12:20 AM54 °FClear.3 mph100%30.01 "Hg10 mi
11:50 PM
Wed, May 25
55 °FClear.5 mph94%30.01 "Hg10 mi
11:20 PM55 °FClear.5 mph94%30.01 "Hg10 mi
10:50 PM55 °FPassing clouds.3 mph100%30.01 "HgN/A
10:20 PM55 °FPartly sunny.1 mph94%30.01 "HgN/A
9:50 PM55 °FPartly sunny.1 mph94%30.01 "Hg6 mi
9:20 PM57 °FPartly sunny.1 mph77%29.98 "HgN/A
8:50 PM55 °FPartly sunny.1 mph88%29.98 "HgN/A
8:20 PM57 °FPartly sunny.1 mph82%29.98 "HgN/A
7:50 PM57 °FPartly sunny.2 mph77%29.98 "HgN/A
7:20 PM57 °FPartly sunny.2 mph82%29.98 "HgN/A
6:50 PM57 °FPartly sunny.3 mph77%29.98 "HgN/A
6:20 PM57 °FPartly sunny.2 mph77%29.98 "HgN/A
5:50 PM57 °FPartly sunny.5 mph72%29.98 "HgN/A
5:20 PM57 °FPartly sunny.5 mph77%29.98 "HgN/A
4:50 PM57 °FPartly sunny.3 mph72%29.98 "HgN/A
4:20 PM57 °FPartly sunny.5 mph77%29.98 "HgN/A
3:50 PM57 °FPartly sunny.2 mph72%29.98 "Hg6 mi
3:20 PM59 °FBroken clouds.5 mph72%29.98 "HgN/A
2:50 PM57 °FPartly sunny.3 mph72%29.98 "Hg5 mi
2:20 PM55 °FBroken clouds.3 mph77%29.98 "Hg5 mi
1:50 PM55 °FBroken clouds.5 mph82%29.98 "HgN/A
1:20 PM54 °FBroken clouds.6 mph82%29.98 "HgN/A
12:50 PM54 °FOvercast.5 mph82%29.98 "HgN/A
12:20 PM54 °FOvercast.3 mph77%30.01 "HgN/A
11:50 AM52 °FMore clouds than sun.5 mph100%30.01 "Hg6 mi
11:20 AM52 °FMore clouds than sun.3 mph94%30.01 "Hg6 mi
10:50 AM52 °FOvercast.3 mph94%29.98 "Hg6 mi
10:20 AM52 °FOvercast.5 mph94%29.98 "HgN/A
9:50 AM50 °FOvercast.3 mph100%29.98 "HgN/A
9:20 AM50 °FOvercast.3 mph100%29.98 "Hg5 mi
8:50 AM50 °FLow clouds.3 mph100%29.98 "HgN/A
8:20 AM50 °FFog.2 mph100%29.98 "Hg3 mi
7:50 AM50 °FFog.2 mph94%29.98 "Hg3 mi
7:20 AM48 °FFog.1 mph100%29.98 "Hg3 mi
6:50 AM48 °FFog.2 mph100%29.98 "Hg3 mi
6:20 AM48 °FFog.2 mph100%29.98 "Hg3 mi
5:50 AM48 °FPassing clouds.2 mph100%29.98 "Hg3 mi
5:20 AM48 °FPassing clouds.1 mph100%29.98 "Hg4 mi
4:50 AM48 °FPassing clouds.3 mph100%29.98 "Hg4 mi
4:20 AM48 °FPassing clouds.3 mph100%29.98 "Hg4 mi
3:50 AM48 °FPassing clouds.3 mph100%29.98 "HgN/A
3:20 AM48 °FPassing clouds.2 mph100%29.98 "HgN/A
2:50 AM48 °FPartly cloudy.2 mph100%29.98 "HgN/A
2:20 AM48 °FPartly cloudy.2 mph100%29.98 "HgN/A
Weather by CustomWeather, © 2016

See weather overviewHow to use our weather pages